Location: Skalnate Pleso
(49.1889°N, 20.2450°E)
Time: 04:20:21
(UTC+01:00)

STARLINK-40 - Pass Details

Date: 19 November 2019
Orbit: 529 x 531 km, 53.0° (Epoch: 09 December)

Event Time Altitude Azimuth Distance (km) Brightness Sun altitude
Exits shadow 05:07:36 22° 227° (SW) 1,192 5.0 -17.2°
Maximum altitude 05:10:04 65° 150° (SSE) 591 3.9 -16.8°
Drops below altitude 10° 05:14:07 10° 69° (ENE) 1,809 7.1 -16.2°
Sets 05:16:23 0° 66° (ENE) 2,716 8.1 -15.8°
